TIANMU-1 20

Last updated on Tue Sep 22 2026 00:02:54 GMT+0000 (Coordinated Universal Time)

1 58661U 23208B 26264.57601435 .00005637 00000+0 17336-3 0 9995 2 58661 97.4520 22.2397 0006332 350.6859 9.4265 15.34073997152192
UTC large
Height (km)
Speed (km/s)
/
Latitude / Longitude
Inclination (degrees)
Orbital Period (minutes)
Azimuth
Elevation
Range (km)
Doppler Factor

Next 0 passes for location: London (51.5072 / 0.1276)

No passes found over London.
TIANMU-1 20